Regional Weather Roundup
Issued by NWS Jackson, KY

Home | Current Version | Previous Version | Text Only | Print | Product List | Glossary Off
Versions: 1 2 3 4 5 6 7 8 9 10 11 12 13 14 15 16 17 18 19 20 21 22 23 24 25 26 27 28 29 30 31 32 33 34 35 36 37 38 39 40 41 42 43 44 45 46 47 48 49 50

000
ASUS43 KJKL 201510
RWRJKL

EAST KENTUCKY HOURLY WEATHER ROUNDUP
NATIONAL WEATHER SERVICE JACKSON KY
1100 AM EDT SAT SEP 20 2014

NOTE: "FAIR" INDICATES FEW OR NO CLOUDS BELOW 12,000 FEET WITH
NO SIGNIFICANT WEATHER AND/OR OBSTRUCTIONS TO VISIBILITY.

* THESE REPORTS ARE NOT UNDER NWS QUALITY CONTROL AND MAY NOT
  REPORT WEATHER SUCH AS PRECIPITATION AND FOG.

KYZ079-080-083-085-087-088-110-112-115-119-120-201600
...EASTERN KENTUCKY...

CITY           SKY/WX    TMP DP  RH WIND       PRES   REMARKS
JACKSON        MOSUNNY   71  60  68 VRB3      30.18S
LONDON         PTSUNNY   72  59  63 S8        30.19S
SOMERSET*      MOSUNNY   70  59  68 S3        30.18S
MONTICELLO*    SUNNY     77  61  57 S12       30.18S
WILLIAMSBURG*  SUNNY     70  63  78 SE7       30.19S
MIDDLESBORO*   SUNNY     72  61  66 SE6       30.21S
HARLAN APT*    SUNNY     72  57  60 MISG      30.21S
HAZARD APT*    SUNNY     73  61  64 S8        30.18S
BLACK MTN*       N/A     63  55  77 SE1         N/A
PIKEVILLE APT* MOSUNNY   70  61  73 S5        30.19S
BIG SANDY*     PTSUNNY   73  60  65 S7        30.18S
MOREHEAD APT*  PTSUNNY   72  61  68 S12G17    30.17F
$$

KYZ035-036-041-042-044-050-067-078-099-201600
...CENTRAL KENTUCKY...

CITY           SKY/WX    TMP DP  RH WIND       PRES   REMARKS
MT STERLING*   SUNNY     72  61  68 SW10G17   30.16F
FLEMING/MASON* MOSUNNY   75  63  64 SW14G20   30.15S
DANVILLE*      SUNNY     73  61  64 SW13G20   30.16F
RICHMOND*      SUNNY     73  59  60 S13G18    30.15F
LEXINGTON      MOSUNNY   75  63  66 S13       30.14F
FRANKFORT      MOSUNNY   73  63  70 S13       30.12F
$$

KYZ091>093-OHZ055-061-077-WVZ005-015-034-035-042-201600
...SOUTHERN OHIO/WEST VIRGINIA...

CITY           SKY/WX    TMP DP  RH WIND       PRES   REMARKS
COVINGTON      MOSUNNY   72  64  76 SW9G18    30.10S
COLUMBUS       PTSUNNY   73  61  65 SW12G20   30.09S
DAYTON         PTSUNNY   71  62  73 SW14      30.08F
WILMINGTON     MOSUNNY   73  63  70 SW15      30.09F
HUNTINGTON     PTSUNNY   69  61  75 S6        30.14F
CHARLESTON     MOSUNNY   74  61  63 S9        30.16F
PINEVILLE*     MOSUNNY   74  63  69 MISG      30.27F
BECKLEY        MOSUNNY   67  57  70 S6        30.25F
BLUEFIELD      SUNNY     70  55  59 VRB6      30.27F
$$

VAZ002-007-008-TNZ017-027-036-066-071-201600
...SOUTHWEST VIRGINIA/EAST TENNESSEE...

CITY           SKY/WX    TMP DP  RH WIND       PRES   REMARKS
WISE*          SUNNY     70  54  56 SW9       30.26F
JONESVILLE*    SUNNY     73  59  60 CALM      30.24S
ABINGDON*      SUNNY     72  56  56 SE5       30.25S
BRISTOL        SUNNY     72  54  53 CALM      30.22F
KNOXVILLE      MOSUNNY   73  60  63 CALM      30.18S
OAK RIDGE      SUNNY     74  61  63 VRB3      30.20S
CROSSVILLE     MOSUNNY   73  59  61 S9G16     30.22R
NASHVILLE      SUNNY     78  63  59 S15       30.15R
$$

...KEY TO REMARKS...
VSB - VISIBILITY IN MILES
WCI - WIND CHILL INDEX
HX  - HEAT INDEX

$$



USA.gov is the U.S. government's official web portal to all federal, state and local government web resources and services.